| time (UTC) | temp F | wind direction | speed MPH | gust MPH | rain 1hr in | rain 24hr in | rain mn in | humidity % | barometer mb |
| 20260904164546 | 83 | 1 | 0.0 | 0.0 | 0.00 | 0.03 | 0.00 | 76 | 1018.9 |
| 20260904163051 | 82 | 1 | 0.0 | 0.0 | 0.00 | 0.03 | 0.00 | 75 | 1019.0 |
| 20260904161541 | 81 | 1 | 0.0 | 0.0 | 0.00 | 0.03 | 0.00 | 78 | 1019.2 |
| 20260904160037 | 80 | 1 | 0.0 | 0.0 | 0.00 | 0.03 | 0.00 | 87 | 1019.2 |
| 20260904154533 | 78 | 1 | 0.0 | 0.0 | 0.00 | 0.03 | 0.00 | 88 | 1019.3 |
| 20260904153030 | 77 | 1 | 0.0 | 0.0 | 0.00 | 0.03 | 0.00 | 88 | 1019.4 |
| 20260904151526 | 75 | 1 | 0.0 | 0.0 | 0.00 | 0.03 | 0.00 | 89 | 1019.5 |
| 20260904150031 | 74 | 1 | 0.0 | 0.0 | 0.00 | 0.03 | 0.00 | 91 | 1019.5 |
| 20260904144519 | 73 | 1 | 0.0 | 0.0 | 0.00 | 0.03 | 0.00 | 91 | 1019.5 |
| 20260904143017 | 72 | 1 | 0.0 | 0.0 | 0.00 | 0.03 | 0.00 | 93 | 1019.6 |
| 20260904141516 | 71 | 1 | 0.0 | 0.0 | 0.00 | 0.03 | 0.00 | 94 | 1019.5 |
| 20260904140017 | 70 | 1 | 0.0 | 0.0 | 0.00 | 0.03 | 0.00 | 94 | 1019.5 |
| 20260904134513 | 69 | 1 | 0.0 | 0.0 | 0.00 | 0.03 | 0.00 | 94 | 1019.6 |
| 20260904133014 | 69 | 1 | 0.0 | 0.0 | 0.00 | 0.03 | 0.00 | 94 | 1019.6 |
| 20260904131513 | 68 | 1 | 0.0 | 0.0 | 0.00 | 0.03 | 0.00 | 95 | 1019.7 |
| 20260904130016 | 68 | 1 | 0.0 | 0.0 | 0.00 | 0.03 | 0.00 | 94 | 1019.7 |
| 20260904124515 | 68 | 1 | 0.0 | 0.0 | 0.00 | 0.03 | 0.00 | 94 | 1019.8 |
| 20260904123011 | 67 | 1 | 0.0 | 0.0 | 0.00 | 0.03 | 0.00 | 94 | 1019.6 |
| 20260904121512 | 67 | 1 | 0.0 | 0.0 | 0.00 | 0.03 | 0.00 | 94 | 1019.7 |
| 20260904120011 | 67 | 1 | 0.0 | 0.0 | 0.00 | 0.03 | 0.00 | 93 | 1019.6 |
| 20260904114509 | 67 | 1 | 0.0 | 0.0 | 0.00 | 0.03 | 0.00 | 93 | 1019.4 |
| 20260904113008 | 67 | 1 | 0.0 | 0.0 | 0.00 | 0.03 | 0.00 | 93 | 1019.1 |
| 20260904111508 | 67 | 1 | 0.0 | 0.0 | 0.00 | 0.03 | 0.00 | 93 | 1019.2 |
| 20260904110006 | 67 | 1 | 0.0 | 0.0 | 0.00 | 0.03 | 0.00 | 93 | 1019.1 |
| 20260904104505 | 67 | 1 | 0.0 | 0.0 | 0.00 | 0.03 | 0.00 | 93 | 1018.9 |
| 20260904103005 | 68 | 1 | 0.0 | 0.0 | 0.00 | 0.03 | 0.00 | 93 | 1018.8 |
| 20260904101509 | 68 | 1 | 0.0 | 0.0 | 0.00 | 0.03 | 0.00 | 93 | 1018.7 |
| 20260904100002 | 68 | 1 | 0.0 | 0.0 | 0.00 | 0.03 | 0.00 | 93 | 1018.6 |
| 20260904094500 | 68 | 1 | 0.0 | 0.0 | 0.00 | 0.03 | 0.00 | 93 | 1018.7 |
| 20260904093113 | 68 | 1 | 0.0 | 0.0 | 0.00 | 0.03 | 0.00 | 93 | 1018.6 |
| 20260904091559 | 69 | 1 | 0.0 | 0.0 | 0.00 | 0.03 | 0.00 | 93 | 1018.5 |
| 20260904090059 | 69 | 1 | 0.0 | 0.0 | 0.00 | 0.03 | 0.00 | 93 | 1018.3 |
| 20260904084557 | 69 | 1 | 0.0 | 0.0 | 0.00 | 0.03 | 0.00 | 93 | 1018.3 |
| 20260904083057 | 69 | 1 | 0.0 | 0.0 | 0.00 | 0.03 | 0.00 | 93 | 1018.3 |
| 20260904081556 | 69 | 1 | 0.0 | 0.0 | 0.00 | 0.03 | 0.00 | 93 | 1018.2 |
| 20260904080055 | 69 | 1 | 0.0 | 0.0 | 0.00 | 0.03 | 0.00 | 93 | 1018.3 |
| 20260904074555 | 69 | 1 | 0.0 | 0.0 | 0.00 | 0.03 | 0.00 | 93 | 1018.4 |
| 20260904073058 | 69 | 1 | 0.0 | 0.0 | 0.00 | 0.03 | 0.00 | 93 | 1018.3 |
| 20260904071558 | 69 | 1 | 0.0 | 0.0 | 0.00 | 0.03 | 0.00 | 93 | 1018.2 |
| 20260904070051 | 70 | 1 | 0.0 | 0.0 | 0.00 | 0.03 | 0.00 | 92 | 1018.4 |
| 20260904064548 | 70 | 1 | 0.0 | 0.0 | 0.00 | 0.03 | 0.00 | 92 | 1018.4 |
| 20260904063050 | 70 | 1 | 0.0 | 0.0 | 0.00 | 0.03 | 0.00 | 92 | 1018.6 |
| 20260904061554 | 70 | 1 | 0.0 | 0.0 | 0.00 | 0.03 | 0.00 | 92 | 1018.6 |
| 20260904060044 | 70 | 1 | 0.0 | 0.0 | 0.00 | 0.03 | 0.00 | 92 | 1018.7 |
| 20260904054544 | 71 | 1 | 0.0 | 0.0 | 0.00 | 0.03 | 0.00 | 92 | 1019.1 |
| 20260904053047 | 71 | 1 | 0.0 | 0.0 | 0.00 | 0.03 | 0.00 | 92 | 1019.2 |
| 20260904051540 | 71 | 1 | 0.0 | 0.0 | 0.00 | 0.03 | 0.00 | 91 | 1019.4 |
| 20260904050038 | 71 | 1 | 0.0 | 0.0 | 0.00 | 0.03 | 0.00 | 91 | 1019.4 |
| 20260904044541 | 71 | 1 | 0.0 | 0.0 | 0.00 | 0.03 | 0.00 | 91 | 1019.4 |
| 20260904043036 | 71 | 1 | 0.0 | 0.0 | 0.00 | 0.03 | 0.00 | 90 | 1019.4 |
| 20260904041534 | 72 | 1 | 0.0 | 0.0 | 0.00 | 0.03 | 0.00 | 91 | 1019.5 |
| 20260904040034 | 72 | 1 | 0.0 | 0.0 | 0.00 | 0.03 | 0.00 | 90 | 1019.6 |
| 20260904034531 | 72 | 1 | 0.0 | 0.0 | 0.00 | 0.03 | 0.03 | 90 | 1019.8 |
| 20260904033038 | 72 | 1 | 0.0 | 0.0 | 0.00 | 0.03 | 0.03 | 90 | 1019.7 |
| 20260904031530 | 72 | 1 | 0.0 | 0.0 | 0.00 | 0.03 | 0.03 | 90 | 1019.8 |
| 20260904030029 | 72 | 1 | 0.0 | 0.0 | 0.00 | 0.03 | 0.03 | 89 | 1019.9 |
| 20260904024529 | 72 | 1 | 0.0 | 0.0 | 0.00 | 0.03 | 0.03 | 88 | 1020.0 |
| 20260904023028 | 73 | 1 | 0.0 | 0.0 | 0.00 | 0.03 | 0.03 | 88 | 1020.0 |
| 20260904021531 | 73 | 1 | 0.0 | 0.0 | 0.00 | 0.03 | 0.03 | 88 | 1019.9 |
| 20260904020027 | 73 | 1 | 0.0 | 0.0 | 0.00 | 0.03 | 0.03 | 88 | 1019.7 |
| 20260904014527 | 73 | 1 | 0.0 | 0.0 | 0.00 | 0.03 | 0.03 | 87 | 1019.7 |
| 20260904013027 | 73 | 1 | 0.0 | 0.0 | 0.00 | 0.03 | 0.03 | 87 | 1019.3 |
| 20260904011526 | 73 | 1 | 0.0 | 0.0 | 0.00 | 0.03 | 0.03 | 86 | 1019.1 |
| 20260904010025 | 74 | 1 | 0.0 | 0.0 | 0.00 | 0.03 | 0.03 | 86 | 1018.9 |
| 20260904004524 | 74 | 1 | 0.0 | 0.0 | 0.00 | 0.03 | 0.03 | 86 | 1018.5 |
| 20260904003025 | 74 | 1 | 0.0 | 0.0 | 0.00 | 0.03 | 0.03 | 87 | 1018.5 |
| 20260904001524 | 74 | 1 | 0.0 | 0.0 | 0.00 | 0.03 | 0.03 | 86 | 1018.3 |
| 20260904000023 | 74 | 1 | 0.0 | 0.0 | 0.00 | 0.03 | 0.03 | 87 | 1018.0 |
| 20260903234522 | 74 | 1 | 0.0 | 0.0 | 0.00 | 0.12 | 0.03 | 87 | 1018.1 |
| 20260903233021 | 74 | 1 | 0.0 | 0.0 | 0.00 | 0.12 | 0.03 | 86 | 1017.8 |
| 20260903231523 | 74 | 1 | 0.0 | 0.0 | 0.00 | 0.12 | 0.03 | 86 | 1017.5 |
| 20260903230041 | 74 | 1 | 0.0 | 0.0 | 0.00 | 0.12 | 0.03 | 86 | 1017.6 |
| 20260903224525 | 75 | 1 | 0.0 | 0.0 | 0.00 | 0.12 | 0.03 | 87 | 1017.6 |
| 20260903223020 | 75 | 1 | 0.0 | 0.0 | 0.00 | 0.12 | 0.03 | 88 | 1017.7 |
| 20260903221520 | 75 | 1 | 0.0 | 0.0 | 0.00 | 0.12 | 0.03 | 88 | 1017.7 |
| 20260903220018 | 75 | 1 | 0.0 | 0.0 | 0.00 | 0.12 | 0.03 | 89 | 1017.7 |
| 20260903214534 | 75 | 1 | 0.0 | 2.0 | 0.00 | 0.12 | 0.03 | 90 | 1017.6 |
| 20260903213021 | 74 | 1 | 0.0 | 0.0 | 0.00 | 0.12 | 0.03 | 90 | 1017.8 |
| 20260903211517 | 74 | 1 | 0.0 | 0.0 | 0.00 | 0.12 | 0.03 | 90 | 1017.7 |
| 20260903210016 | 74 | 1 | 0.0 | 0.0 | 0.00 | 0.12 | 0.03 | 89 | 1017.6 |
| 20260903204515 | 74 | 1 | 0.0 | 0.0 | 0.00 | 0.12 | 0.03 | 88 | 1017.8 |
| 20260903203014 | 75 | 1 | 0.0 | 0.0 | 0.02 | 0.12 | 0.03 | 88 | 1017.8 |
| 20260903201517 | 76 | 1 | 0.0 | 0.0 | 0.03 | 0.12 | 0.03 | 87 | 1017.9 |
| 20260903200012 | 77 | 1 | 0.0 | 2.0 | 0.03 | 0.12 | 0.03 | 86 | 1018.1 |
| 20260903194512 | 80 | 1 | 0.0 | 5.0 | 0.03 | 0.12 | 0.03 | 82 | 1018.3 |
| 20260903193122 | 83 | 1 | 0.0 | 7.0 | 0.01 | 0.10 | 0.01 | 77 | 1018.4 |
| 20260903191511 | 85 | 1 | 0.0 | 0.0 | 0.00 | 0.09 | 0.00 | 70 | 1017.9 |
| 20260903190010 | 86 | 1 | 0.0 | 0.0 | 0.00 | 0.09 | 0.00 | 66 | 1018.0 |
| 20260903184509 | 86 | 1 | 0.0 | 0.0 | 0.00 | 0.09 | 0.00 | 66 | 1018.1 |
| 20260903183007 | 86 | 1 | 0.0 | 0.0 | 0.00 | 0.09 | 0.00 | 67 | 1018.4 |
| 20260903181506 | 86 | 1 | 0.0 | 0.0 | 0.00 | 0.09 | 0.00 | 67 | 1018.5 |
| 20260903180018 | 85 | 1 | 0.0 | 0.0 | 0.00 | 0.09 | 0.00 | 68 | 1018.6 |
| 20260903174503 | 85 | 1 | 0.0 | 0.0 | 0.00 | 0.09 | 0.00 | 69 | 1018.7 |
| 20260903173106 | 85 | 1 | 0.0 | 0.0 | 0.00 | 0.09 | 0.00 | 66 | 1018.9 |
| 20260903171558 | 85 | 1 | 0.0 | 0.0 | 0.00 | 0.09 | 0.00 | 69 | 1019.2 |
| 20260903170201 | 84 | 1 | 0.0 | 0.0 | 0.00 | 0.09 | 0.00 | 70 | 1019.4 |